Dakar, Senegal

1:56 AM GMT on September 05, 2015 (GMT +0000)
Ngor Almadies | | Change Station
CLOSE
Current Station
Personal Weather Station
Location: Dakar, DAKAR
Elevation: 46 ft
Nearby Weather Stations

Elev 46 ft 14.74 °N, 17.51 °W | Updated 6 seconds ago

Thunderstorm
Thunderstorm
80.8 °F
Feels Like 88 °F
N
1.0
Wind Variable Wind from ESE
Gusts 2.0 mph

Today
High -- | Low -- °F
--% Chance of Precip.
Yesterday
High -- | Low -- °F
Precip. -- in
6:58 AM 7:19 PM
Waning Gibbous, 54% visible
Pressure 29.95 in
Visibility 6.2 miles
Clouds Scattered Clouds 800 ft
Few 3000 ft
Scattered Clouds 13000 ft
Heat Index 88 °F
Dew Point 77 °F
Humidity 89%
Rainfall 0.00 in
Snow Depth Not available.
UV 0 out of 12
Pollen Not available.
Air Quality Not available.
Flu Activity Not available.
METAR GOOY 050130Z 11008KT 9999 TS SCT008 FEW030CB SCT130 27/25 Q1014 BECMG 07010G35KT 3000 SQ TSRA
Pressure 29.95 in
Visibility 6.2 miles
Clouds Scattered Clouds 800 ft
Few 3000 ft
Scattered Clouds 13000 ft
Heat Index 88 °F
Dew Point 77 °F
Humidity 89%
Rainfall 0.00 in
Snow Depth Not available.
UV 0 out of 12
Pollen Not available.
Air Quality Not available.
Flu Activity Not available.
METAR GOOY 050130Z 11008KT 9999 TS SCT008 FEW030CB SCT130 27/25 Q1014 BECMG 07010G35KT 3000 SQ TSRA

10-Day Weather Forecast

×

Almanac

Astronomy

Sep. 05, 2015 Rise Set
Actual Time
Civil Twilight
Nautical Twilight
Astronomical Twilight
Moon
Length of Visible Light
Length of Day
Tomorrow will be .
, % of the Moon is Illuminated

Today's Extremes

Country Highs Country Lows

Community

WunderPhotos

Upload Photos

1,852,375 photos uploaded!

WunderBlogs® & News

Nearby

Air Quality

  Air Quality AQ Index Pollutant
Not available.

Snow Depth

Station Depth Elevation

Earthquake Activity

City Distance Mag. Time & Date
Minimum magnitude displayed is 2.5.

Coastal Water Temperatures

Place Temperature

Stations

Nearby Weather Stations

Station Location Temp. Windchill Dew Point Humidity Wind Precip. Elev Updated Type